Regional Weather Roundup
Issued by NWS

Home | Current Version | Previous Version | Text Only | Print | Product List | Glossary Off
Versions: 1 2 3 4 5 6 7 8 9 10 11 12 13 14 15 16 17 18 19 20 21 22 23 24 25 26 27 28 29 30 31 32 33 34 35 36 37 38 39 40 41 42 43 44 45 46 47 48 49 50

000
ASUS43 KDTX 281910
RWRMI
MICHIGAN HOURLY REGIONAL WEATHER ROUNDUP
NATIONAL WEATHER SERVICE DETROIT/PONTIAC MI
200 PM EST FRI NOV 28 2014

NOTE: "FAIR" INDICATES FEW OR NO CLOUDS BELOW 12,000 FEET WITH NO
SIGNIFICANT WEATHER AND/OR OBSTRUCTION TO VISIBILITY.

MIZ047>049-052>055-059>063-066>070-074>076-081>083-282000-
SOUTHEAST LOWER MICHIGAN

CITY           SKY/WX    TMP DP  RH WIND       PRES   REMARKS
ADRIAN         CLOUDY    26  17  68 SW12      30.22F
ALMA           LGT SNOW  25  20  81 S8        30.17F
ANN ARBOR      CLOUDY    27  15  61 SW9       30.21F
BAD AXE        CLOUDY    24  13  65 SW7       30.20F
DETROIT CITY   PTSUNNY   29  14  53 SW10      30.23F
DETROIT        CLOUDY    27  14  58 S12       30.24F
FLINT          CLOUDY    28  14  55 S7        30.20F
GROSSE ILE     CLOUDY    27  18  69 S12       30.23F
HILLSDALE      CLOUDY    25  17  69 S8        30.18F
HOWELL         CLOUDY    26  15  62 S8        30.18F

CITY           SKY/WX    TMP DP  RH WIND       PRES   REMARKS
JACKSON        CLOUDY    26  16  65 S9        30.18F
LAMBERTVILLE   PTSUNNY   30  18  59 SW7       30.23F
LANSING        FLURRIES  26  15  63 S13       30.18F
LAPEER         NOT AVBL
MASON          LGT SNOW  26  19  73 S6        30.18F
MONROE         PTSUNNY   27  18  69 SW8       30.22F
MT. CLEMENS    PTSUNNY   27  11  51 SW8       30.21F
PONTIAC        CLOUDY    26  12  55 S9        30.18F
PORT HOPE        N/A     23  11  60 SW8       30.19
PORT HURON     CLOUDY    25  12  58 SW7       30.23F
TRI CITIES     CLOUDY    26  14  60 S9        30.19F
YPSILANTI      CLOUDY    30  15  53 S13       30.22F
$$
MIZ043>046-050>051-056>058-064>065-071>073-077>080-282000-
SOUTHWEST LOWER MICHIGAN

CITY           SKY/WX    TMP DP  RH WIND       PRES   REMARKS
BATTLE CREEK   LGT SNOW  25  17  72 S13       30.16F
BENTON HARBOR  CLOUDY    25  17  72 SE13G18   30.15F
BIG RAPIDS     LGT SNOW  24  22  91 S8        30.11F
COLDWATER      CLOUDY    26  20  76 S7        30.18F
HOLLAND        CLOUDY    25  17  72 SE9       30.14F
GRAND RAPIDS   FLURRIES  24  15  68 S15       30.16F
KALAMAZOO      LGT SNOW  24  18  77 S12       30.17F
MARSHALL       CLOUDY    24  15  70 S9        30.17F
MUSKEGON       FLURRIES  25  16  68 SE9       30.13F
$$
MIZ016>042-282000-
NORTHERN LOWER MICHIGAN

CITY           SKY/WX    TMP DP  RH WIND       PRES   REMARKS
ALPENA         CLOUDY    22  13  68 SW9       30.16F
BEAVER ISLAND  CLOUDY    24  20  86 E3        30.10F
BELLAIRE       LGT SNOW  24  18  76 S5        30.14F
CADILLAC       FLURRIES  21  17  84 SE7       30.08F
CHARLEVOIX     LGT SNOW  23  18  83 S6        30.14F
FRANKFORT      LGT SNOW  23  20  89 S9        30.10F
GAYLORD        CLOUDY    19  13  77 S7        30.09F
GRAYLING       CLOUDY    21  16  80 S6        30.12F
HARBOR SPRINGS CLOUDY    23  16  75 S7        30.12F
HOUGHTON LAKE  LGT SNOW  20  15  81 S8        30.12F
MANISTEE       PTSUNNY   25  19  80 SE9       30.10F
OSCODA         CLOUDY    24  13  65 SW7       30.18F
PELLSTON       CLOUDY    23  16  74 S8        30.12F
TRAVERSE CITY  LGT SNOW  25  17  72 VRB5      30.11F
$$
MIZ007>008-015-282000-
EASTERN UPPER MICHIGAN

CITY           SKY/WX    TMP DP  RH WIND       PRES   REMARKS
KINROSS        PTSUNNY   19  16  86 E3        30.11F
MACKINAC ISLAN LGT SNOW  22  19  88 CALM      30.11F
NEWBERRY       CLOUDY    17  10  73 SW3       30.09F
S. S. MARIE    CLOUDY    14   9  80 E6        30.11F
$$
MIZ004>006-011>014-085-282000-
CENTRAL UPPER MICHIGAN

CITY           SKY/WX    TMP DP  RH WIND       PRES   REMARKS
MANISTIQUE     CLOUDY    20  12  72 CALM      30.09F
ESCANABA       CLOUDY    18   9  68 SW5       30.08F
MENOMINEE      CLOUDY    18  16  93 CALM      30.07F
SAWYER-GWINN   PTSUNNY   16   5  62 SW8       30.03F
$$
MIZ001>003-009>011-084-282000-
WESTERN UPPER MICHIGAN

CITY           SKY/WX    TMP DP  RH WIND       PRES   REMARKS
IRON MOUNTAIN  CLOUDY    13   7  77 SE6       30.02F
HOUGHTON       CLOUDY    13   2  61 S6        29.99F
COPPER HARBOR    N/A     19   9  65 SW8       30.03F
IRONWOOD       CLOUDY    14  10  85 CALM      29.93S
$$

ABBREVIATIONS USED IN REMARKS
   TC - TEMPERATURE IN CELSIUS
  WCI - WIND CHILL INDEX
   HX - HEAT INDEX
  VSB - VISIBILITY



USA.gov is the U.S. government's official web portal to all federal, state and local government web resources and services.